Satellite-Ground Cal/Val Region Overpasses Predictions

Prediction of Satellite NPP Overpassing Cal/Val Region: PacNW

Region Location: (Latitude: 10.00, Longitude: 139.50) to (Latitude: 22.70, Longitude: 165.60).

Table of predicted overpasses for the next 14.0 days since TLE Epoch: 9/8/2017
Interval Starting Time Starting Location Ending Time Ending Location
1 09/08/2017 15:05:13 ( 22.69, 158.72) 09/08/2017 15:08:49 ( 10.01, 155.70)
2 09/09/2017 02:15:06 ( 12.81, 165.59) 09/09/2017 02:17:54 ( 22.67, 163.22)
3 09/09/2017 03:55:49 ( 10.05, 140.85) 09/09/2017 03:57:28 ( 15.87, 139.50)
4 09/09/2017 14:46:12 ( 22.64, 163.46) 09/09/2017 14:49:47 ( 10.02, 160.46)
5 09/10/2017 03:36:47 ( 10.04, 145.61) 09/10/2017 03:40:22 ( 22.66, 142.61)
6 09/10/2017 14:30:18 ( 11.68, 165.60) 09/10/2017 14:30:46 ( 10.04, 165.22)
7 09/10/2017 16:08:41 ( 22.66, 142.85) 09/10/2017 16:12:16 ( 10.04, 139.84)
8 09/11/2017 03:17:46 ( 10.02, 150.37) 09/11/2017 03:21:22 ( 22.70, 147.35)
9 09/11/2017 15:49:39 ( 22.67, 147.61) 09/11/2017 15:53:14 ( 10.05, 144.60)
10 09/12/2017 02:58:44 ( 10.00, 155.13) 09/12/2017 03:02:20 ( 22.68, 152.11)
11 09/12/2017 15:30:38 ( 22.69, 152.37) 09/12/2017 15:34:14 ( 10.01, 149.35)
12 09/13/2017 02:39:44 ( 10.05, 159.88) 09/13/2017 02:43:19 ( 22.67, 156.87)
13 09/13/2017 15:11:38 ( 22.64, 157.11) 09/13/2017 15:15:13 ( 10.02, 154.11)
14 09/14/2017 02:20:42 ( 10.03, 164.64) 09/14/2017 02:24:17 ( 22.65, 161.63)
15 09/14/2017 14:52:36 ( 22.66, 161.87) 09/14/2017 14:56:11 ( 10.04, 158.87)
16 09/15/2017 03:43:11 ( 10.02, 144.02) 09/15/2017 03:46:46 ( 22.64, 141.02)
17 09/15/2017 14:34:47 ( 18.45, 165.60) 09/15/2017 14:37:10 ( 10.05, 163.63)
18 09/15/2017 16:15:05 ( 22.67, 141.26) 09/15/2017 16:17:08 ( 15.45, 139.51)
19 09/16/2017 03:24:09 ( 10.01, 148.78) 09/16/2017 03:27:45 ( 22.69, 145.76)
20 09/16/2017 15:56:03 ( 22.68, 146.02) 09/16/2017 15:59:39 ( 10.00, 143.00)
21 09/17/2017 03:05:09 ( 10.05, 153.53) 09/17/2017 03:08:44 ( 22.68, 150.52)
22 09/17/2017 15:37:02 ( 22.70, 150.78) 09/17/2017 15:40:38 ( 10.02, 147.76)
23 09/18/2017 02:46:07 ( 10.04, 158.29) 09/18/2017 02:49:42 ( 22.66, 155.28)
24 09/18/2017 15:18:01 ( 22.65, 155.52) 09/18/2017 15:21:36 ( 10.03, 152.52)
25 09/19/2017 02:27:06 ( 10.03, 163.04) 09/19/2017 02:30:41 ( 22.65, 160.04)
26 09/19/2017 14:59:00 ( 22.66, 160.28) 09/19/2017 15:02:35 ( 10.04, 157.28)
27 09/20/2017 02:10:44 ( 19.41, 165.60) 09/20/2017 02:11:40 ( 22.70, 164.78)
28 09/20/2017 03:49:34 ( 10.02, 142.43) 09/20/2017 03:53:03 ( 22.29, 139.51)
29 09/20/2017 14:39:58 ( 22.67, 165.04) 09/20/2017 14:43:33 ( 10.05, 162.04)
30 09/20/2017 16:21:28 ( 22.67, 139.66) 09/20/2017 16:21:39 ( 22.03, 139.50)
31 09/21/2017 03:30:33 ( 10.01, 147.19) 09/21/2017 03:34:09 ( 22.69, 144.17)
32 09/21/2017 16:02:27 ( 22.68, 144.42) 09/21/2017 16:06:03 ( 10.00, 141.41)


NCC Satellite Cal/Val Overpasses Prediction Service
